Hourly Data Report for October 07, 2014

All times are specified in Local Standard Time (LST). Add 1 hour to adjust for Daylight Saving Time where and when it is observed.

ARVIAT A
NUNAVUT

61°05'38.000" N
94°04'18.000" W
10.40 m
2300427
71174
YEK

Download Data

Hourly Data (October 2014)
Hourly Data Report for October 7, 2014
Temp Definition
°C
Dew Point Temp Definition
°C
Rel Hum Definition
%
Wind Dir Definition
10's deg

Wind Spd Definition
km/h
Visibility Definition
km
Stn Press Definition
kPa
Hmdx Definition


Wind Chill Definition


Weather Definition


TIME
00:00 Legend Double Dagger 3.2 2.6 96 8 30 4.8 100.25     Fog
01:00 Legend Double Dagger 3.2 2.6 96 6 28 4.8 100.31     Fog
02:00 Legend Double Dagger 3.1 2.5 96 6 28 4.8 100.34     Fog
03:00 Legend Double Dagger 3.3 2.7 96 6 32 4.8 100.36     Fog
04:00 Legend Double Dagger 3.4 2.4 93 5 32 11.3 100.37     LegendNANA
05:00 Legend Double Dagger 3.2 2.2 93 6 32 16.1 100.42     LegendNANA
06:00 Legend Double Dagger 3.3 2.1 92 5 32 16.1 100.41     LegendNANA
07:00 Legend Double Dagger 3.4 2.8 96 4 37 9.7 100.44     Fog
08:00 Legend Double Dagger 3.3 2.6 95 5 37 8.1 100.48     Fog
09:00 Legend Double Dagger 3.3 2.6 95 5 35 8.1 100.50     Rain,Fog
10:00 Legend Double Dagger 3.4 2.8 96 5 35 4.8 100.52     Rain,Fog
11:00 Legend Double Dagger 3.8 3.1 95 5 37 8.1 100.55     Fog
12:00 Legend Double Dagger 3.8 3.1 95 5 41 9.7 100.60     Rain,Fog
13:00 Legend Double Dagger 3.9 3.2 95 5 35 8.1 100.64     Rain,Fog
14:00 Legend Double Dagger 4.2 3.3 94 6 37 8.1 100.70     Fog
15:00 Legend Double Dagger 3.9 3.2 95 6 32 8.1 100.77     Fog
16:00 Legend Double Dagger 4.0 3.3 95 5 34 8.1 100.83     Fog
17:00 Legend Double Dagger 3.8 3.2 96 6 34 8.1 100.92     Fog
18:00 Legend Double Dagger 3.7 3.1 96 5 30 6.4 101.01     Fog
19:00 Legend Double Dagger 3.5 3.2 98 5 34 4.8 101.05     Fog
20:00 Legend Double Dagger 3.5 3.1 97 5 32 6.4 101.11     Fog
21:00 Legend Double Dagger 3.4 2.9 96 5 32 6.4 101.16     Fog
22:00 Legend Double Dagger 3.4 3.0 97 5 28 6.4 101.21     Fog
23:00 Legend Double Dagger 3.4 3.0 97 5 28 8.1 101.24     Fog

Notes on Data Quality.

Legend

  • E = Estimated
  • M = Missing
  • NA = Not Available
  • ‡ = Partner data that is not subject to review by the National Climate Archives
Date modified: